WY1U-1 Weather Reports


time (UTC)temp
C
wind
direction
speed
KPH
gust
KPH
rain 1hr
cm
rain 24hr
cm
rain mn
cm
humidity
%
barometer
mb
20260505050149 12 196 0.0 3.2 0.00 0.00 0.00 80 1011.5
20260505033149 12 204 1.6 4.8 0.00 0.00 0.00 77 1011.6
20260505030150 12 203 1.6 4.8 0.00 0.00 0.00 76 1011.5
20260505013149 13 205 1.6 9.7 0.00 0.00 0.00 70 1011.5
20260505010149 14 195 3.2 11.3 0.00 0.00 0.00 68 1011.1
20260505000150 15 215 3.2 9.7 0.00 0.00 0.00 62 1010.2
20260504220150 18 197 9.7 29.0 0.00 0.00 0.00 48 1009.7
20260504200150 20 204 12.9 29.0 0.00 0.00 0.00 41 1009.5
20260504190150 20 222 11.3 25.7 0.00 0.00 0.00 39 1009.7
20260504180150 20 226 6.4 22.5 0.00 0.00 0.00 34 1010.2
20260504170150 20 238 8.0 20.9 0.00 0.00 0.00 32 1010.7
20260504160150 19 237 11.3 33.8 0.00 0.00 0.00 33 1011.4
20260504150150 17 261 8.0 22.5 0.00 0.00 0.00 35 1012.1
20260504140150 16 250 8.0 22.5 0.00 0.00 0.00 38 1012.6
20260504130150 15 257 6.4 16.1 0.00 0.00 0.00 45 1013.2
20260504120150 10 189 0.0 4.8 0.00 0.00 0.00 66 1013.7
20260504110150 7 179 0.0 1.6 0.00 0.00 0.00 71 1013.6
20260504100149 9 264 0.0 1.6 0.00 0.00 0.00 59 1013.1
20260504080150 5 218 0.0 1.6 0.00 0.00 0.00 78 1012.7
20260504070151 6 0 0.0 0.0 0.00 0.00 0.00 74 1012.5
20260504060150 5 0 0.0 0.0 0.00 0.00 0.00 71 1012.5